Year,Month,Day,Hour,Minute,Value (Times are PST for temperature in C)
2014,09,15,00,00,12.70
2014,09,15,00,01,12.70
2014,09,15,00,02,12.70
2014,09,15,00,03,12.70
2014,09,15,00,04,12.60
2014,09,15,00,05,12.60
2014,09,15,00,06,12.60
2014,09,15,00,07,12.60
2014,09,15,00,08,12.60
2014,09,15,00,09,12.60
2014,09,15,00,10,12.50
2014,09,15,00,11,12.50
2014,09,15,00,12,12.50
2014,09,15,00,13,12.50
2014,09,15,00,14,12.40
2014,09,15,00,15,12.40
2014,09,15,00,16,12.40
2014,09,15,00,17,12.40
2014,09,15,00,18,12.40
2014,09,15,00,19,12.30
2014,09,15,00,20,12.30
2014,09,15,00,21,12.30
2014,09,15,00,22,12.30
2014,09,15,00,23,12.30
2014,09,15,00,24,12.30
2014,09,15,00,25,12.20
2014,09,15,00,26,12.20
2014,09,15,00,27,12.20
2014,09,15,00,28,12.20
2014,09,15,00,29,12.20
2014,09,15,00,30,12.20
2014,09,15,00,31,12.20
2014,09,15,00,32,12.20
2014,09,15,00,33,12.10
2014,09,15,00,34,12.10
2014,09,15,00,35,12.10
2014,09,15,00,36,12.10
2014,09,15,00,37,12.10
2014,09,15,00,38,12.00
2014,09,15,00,39,12.00
2014,09,15,00,40,12.00
2014,09,15,00,41,12.00
2014,09,15,00,42,12.00
2014,09,15,00,43,11.90
2014,09,15,00,44,11.90
2014,09,15,00,45,11.90
2014,09,15,00,46,11.90
2014,09,15,00,47,11.90
2014,09,15,00,48,11.90
2014,09,15,00,49,11.90
2014,09,15,00,50,11.90
2014,09,15,00,51,11.90
2014,09,15,00,52,11.80
2014,09,15,00,53,11.80
2014,09,15,00,54,11.80
2014,09,15,00,55,11.80
2014,09,15,00,56,11.80
2014,09,15,00,57,11.80
2014,09,15,00,58,11.80
2014,09,15,00,59,11.80
2014,09,15,01,00,11.80
2014,09,15,01,01,11.80
2014,09,15,01,02,11.80
2014,09,15,01,03,11.70
2014,09,15,01,04,11.70
2014,09,15,01,05,11.70
2014,09,15,01,06,11.70
2014,09,15,01,07,11.70
2014,09,15,01,08,11.70
2014,09,15,01,09,11.70
2014,09,15,01,10,11.70
2014,09,15,01,11,11.70
2014,09,15,01,12,11.70
2014,09,15,01,13,11.70
2014,09,15,01,14,11.70
2014,09,15,01,15,11.70
2014,09,15,01,16,11.70
2014,09,15,01,17,11.70
2014,09,15,01,18,11.70
2014,09,15,01,19,11.70
2014,09,15,01,20,11.70
2014,09,15,01,21,11.70
2014,09,15,01,22,11.70
2014,09,15,01,23,11.70
2014,09,15,01,24,11.70
2014,09,15,01,25,11.70
2014,09,15,01,26,11.70
2014,09,15,01,27,11.60
2014,09,15,01,28,11.60
2014,09,15,01,29,11.60
2014,09,15,01,30,11.60
2014,09,15,01,31,11.60
2014,09,15,01,32,11.60
2014,09,15,01,33,11.60
2014,09,15,01,34,11.60
2014,09,15,01,35,11.60
2014,09,15,01,36,11.60
2014,09,15,01,37,11.60
2014,09,15,01,38,11.60
2014,09,15,01,39,11.60
2014,09,15,01,40,11.60
2014,09,15,01,41,11.60
2014,09,15,01,42,11.60
2014,09,15,01,43,11.60
2014,09,15,01,44,11.60
2014,09,15,01,45,11.60
2014,09,15,01,46,11.60
2014,09,15,01,47,11.60
2014,09,15,01,48,11.60
2014,09,15,01,49,11.60
2014,09,15,01,50,11.60
2014,09,15,01,51,11.60
2014,09,15,01,52,11.60
2014,09,15,01,53,11.50
2014,09,15,01,54,11.50
2014,09,15,01,55,11.50
2014,09,15,01,56,11.50
2014,09,15,01,57,11.50
2014,09,15,01,58,11.50
2014,09,15,01,59,11.50
2014,09,15,02,00,11.40
2014,09,15,02,01,11.40
2014,09,15,02,02,11.40
2014,09,15,02,03,11.40
2014,09,15,02,04,11.40
2014,09,15,02,05,11.40
2014,09,15,02,06,11.40
2014,09,15,02,07,11.40
2014,09,15,02,08,11.40
2014,09,15,02,09,11.40
2014,09,15,02,10,11.40
2014,09,15,02,11,11.40
2014,09,15,02,12,11.30
2014,09,15,02,13,11.30
2014,09,15,02,14,11.30
2014,09,15,02,15,11.30
2014,09,15,02,16,11.30
2014,09,15,02,17,11.30
2014,09,15,02,18,11.30
2014,09,15,02,19,11.30
2014,09,15,02,20,11.30
2014,09,15,02,21,11.30
2014,09,15,02,22,11.30
2014,09,15,02,23,11.30
2014,09,15,02,24,11.30
2014,09,15,02,25,11.30
2014,09,15,02,26,11.30
2014,09,15,02,27,11.30
2014,09,15,02,28,11.30
2014,09,15,02,29,11.30
2014,09,15,02,30,11.30
2014,09,15,02,31,11.30
2014,09,15,02,32,11.30
2014,09,15,02,33,11.30
2014,09,15,02,34,11.30
2014,09,15,02,35,11.30
2014,09,15,02,36,11.30
2014,09,15,02,37,11.30
2014,09,15,02,38,11.30
2014,09,15,02,39,11.30
2014,09,15,02,40,11.30
2014,09,15,02,41,11.30
2014,09,15,02,42,11.20
2014,09,15,02,43,11.20
2014,09,15,02,44,11.20
2014,09,15,02,45,11.20
2014,09,15,02,46,11.20
2014,09,15,02,47,11.30
2014,09,15,02,48,11.30
2014,09,15,02,49,11.30
2014,09,15,02,50,11.30
2014,09,15,02,51,11.30
2014,09,15,02,52,11.30
2014,09,15,02,53,11.30
2014,09,15,02,54,11.30
2014,09,15,02,55,11.30
2014,09,15,02,56,11.30
2014,09,15,02,57,11.30
2014,09,15,02,58,11.30
2014,09,15,02,59,11.30
2014,09,15,03,00,11.30
2014,09,15,03,01,11.30
2014,09,15,03,02,11.30
2014,09,15,03,03,11.30
2014,09,15,03,04,11.30
2014,09,15,03,05,11.30
2014,09,15,03,06,11.30
2014,09,15,03,07,11.30
2014,09,15,03,08,11.30
2014,09,15,03,09,11.30
2014,09,15,03,10,11.30
2014,09,15,03,11,11.30
2014,09,15,03,12,11.30
2014,09,15,03,13,11.30
2014,09,15,03,14,11.30
2014,09,15,03,15,11.30
2014,09,15,03,16,11.30
2014,09,15,03,17,11.30
2014,09,15,03,18,11.30
2014,09,15,03,19,11.30
2014,09,15,03,20,11.30
2014,09,15,03,21,11.30
2014,09,15,03,22,11.30
2014,09,15,03,23,11.30
2014,09,15,03,24,11.30
2014,09,15,03,25,11.30
2014,09,15,03,26,11.30
2014,09,15,03,27,11.30
2014,09,15,03,28,11.30
2014,09,15,03,29,11.30
2014,09,15,03,30,11.30
2014,09,15,03,31,11.30
2014,09,15,03,32,11.30
2014,09,15,03,33,11.30
2014,09,15,03,34,11.30
2014,09,15,03,35,11.30
2014,09,15,03,36,11.30
2014,09,15,03,37,11.30
2014,09,15,03,38,11.30
2014,09,15,03,39,11.30
2014,09,15,03,40,11.30
2014,09,15,03,41,11.30
2014,09,15,03,42,11.30
2014,09,15,03,43,11.30
2014,09,15,03,44,11.30
2014,09,15,03,45,11.30
2014,09,15,03,46,11.30
2014,09,15,03,47,11.30
2014,09,15,03,48,11.30
2014,09,15,03,49,11.30
2014,09,15,03,50,11.30
2014,09,15,03,51,11.30
2014,09,15,03,52,11.30
2014,09,15,03,53,11.30
2014,09,15,03,54,11.30
2014,09,15,03,55,11.30
2014,09,15,03,56,11.30
2014,09,15,03,57,11.30
2014,09,15,03,58,11.30
2014,09,15,03,59,11.30
2014,09,15,04,00,11.30
2014,09,15,04,01,11.30
2014,09,15,04,02,11.30
2014,09,15,04,03,11.30
2014,09,15,04,04,11.30
2014,09,15,04,05,11.30
2014,09,15,04,06,11.30
2014,09,15,04,07,11.30
2014,09,15,04,08,11.30
2014,09,15,04,09,11.30
2014,09,15,04,10,11.30
2014,09,15,04,11,11.30
2014,09,15,04,12,11.30
2014,09,15,04,13,11.30
2014,09,15,04,14,11.30
2014,09,15,04,15,11.30
2014,09,15,04,16,11.30
2014,09,15,04,17,11.30
2014,09,15,04,18,11.30
2014,09,15,04,19,11.30
2014,09,15,04,20,11.30
2014,09,15,04,21,11.30
2014,09,15,04,22,11.30
2014,09,15,04,23,11.30
2014,09,15,04,24,11.30
2014,09,15,04,25,11.30
2014,09,15,04,26,11.30
2014,09,15,04,27,11.20
2014,09,15,04,28,11.20
2014,09,15,04,29,11.20
2014,09,15,04,30,11.20
2014,09,15,04,31,11.20
2014,09,15,04,32,11.20
2014,09,15,04,33,11.20
2014,09,15,04,34,11.20
2014,09,15,04,35,11.20
2014,09,15,04,36,11.20
2014,09,15,04,37,11.20
2014,09,15,04,38,11.20
2014,09,15,04,39,11.20
2014,09,15,04,40,11.20
2014,09,15,04,41,11.20
2014,09,15,04,42,11.10
2014,09,15,04,43,11.10
2014,09,15,04,44,11.10
2014,09,15,04,45,11.10
2014,09,15,04,46,11.10
2014,09,15,04,47,11.10
2014,09,15,04,48,11.10
2014,09,15,04,49,11.10
2014,09,15,04,50,11.10
2014,09,15,04,51,11.10
2014,09,15,04,52,11.10
2014,09,15,04,53,11.10
2014,09,15,04,54,11.10
2014,09,15,04,55,11.10
2014,09,15,04,56,11.10
2014,09,15,04,57,11.10
2014,09,15,04,58,11.10
2014,09,15,04,59,11.10
2014,09,15,05,00,11.10
2014,09,15,05,01,11.10
2014,09,15,05,02,11.10
2014,09,15,05,03,11.20
2014,09,15,05,04,11.20
2014,09,15,05,05,11.20
2014,09,15,05,06,11.20
2014,09,15,05,07,11.20
2014,09,15,05,08,11.20
2014,09,15,05,09,11.20
2014,09,15,05,10,11.20
2014,09,15,05,11,11.20
2014,09,15,05,12,11.20
2014,09,15,05,13,11.20
2014,09,15,05,14,11.20
2014,09,15,05,15,11.20
2014,09,15,05,16,11.20
2014,09,15,05,17,11.10
2014,09,15,05,18,11.10
2014,09,15,05,19,11.10
2014,09,15,05,20,11.10
2014,09,15,05,21,11.10
2014,09,15,05,22,11.10
2014,09,15,05,23,11.10
2014,09,15,05,24,11.10
2014,09,15,05,25,11.10
2014,09,15,05,26,11.10
2014,09,15,05,27,11.10
2014,09,15,05,28,11.10
2014,09,15,05,29,11.10
2014,09,15,05,30,11.10
2014,09,15,05,31,11.00
2014,09,15,05,32,11.00
2014,09,15,05,33,11.00
2014,09,15,05,34,11.00
2014,09,15,05,35,11.00
2014,09,15,05,36,11.00
2014,09,15,05,37,11.00
2014,09,15,05,38,11.00
2014,09,15,05,39,11.00
2014,09,15,05,40,11.00
2014,09,15,05,41,11.00
2014,09,15,05,42,11.00
2014,09,15,05,43,10.90
2014,09,15,05,44,10.90
2014,09,15,05,45,10.90
2014,09,15,05,46,10.90
2014,09,15,05,47,10.90
2014,09,15,05,48,10.90
2014,09,15,05,49,10.90
2014,09,15,05,50,10.90
2014,09,15,05,51,10.80
2014,09,15,05,52,10.80
2014,09,15,05,53,10.80
2014,09,15,05,54,10.80
2014,09,15,05,55,10.80
2014,09,15,05,56,10.80
2014,09,15,05,57,10.80
2014,09,15,05,58,10.80
2014,09,15,05,59,10.80
2014,09,15,06,00,10.80
2014,09,15,06,01,10.80
2014,09,15,06,02,10.80
2014,09,15,06,03,10.80
2014,09,15,06,04,10.80
2014,09,15,06,05,10.80
2014,09,15,06,06,10.80
2014,09,15,06,07,10.70
2014,09,15,06,08,10.70
2014,09,15,06,09,10.70
2014,09,15,06,10,10.70
2014,09,15,06,11,10.70
2014,09,15,06,12,10.70
2014,09,15,06,13,10.70
2014,09,15,06,14,10.70
2014,09,15,06,15,10.70
2014,09,15,06,16,10.70
2014,09,15,06,17,10.70
2014,09,15,06,18,10.70
2014,09,15,06,19,10.70
2014,09,15,06,20,10.70
2014,09,15,06,21,10.70
2014,09,15,06,22,10.80
2014,09,15,06,23,10.70
2014,09,15,06,24,10.80
2014,09,15,06,25,10.80
2014,09,15,06,26,10.80
2014,09,15,06,27,10.80
2014,09,15,06,28,10.80
2014,09,15,06,29,10.80
2014,09,15,06,30,10.80
2014,09,15,06,31,10.80
2014,09,15,06,32,10.80
2014,09,15,06,33,10.80
2014,09,15,06,34,10.80
2014,09,15,06,35,10.70
2014,09,15,06,36,10.70
2014,09,15,06,37,10.70
2014,09,15,06,38,10.70
2014,09,15,06,39,10.70
2014,09,15,06,40,10.70
2014,09,15,06,41,10.70
2014,09,15,06,42,10.70
2014,09,15,06,43,10.70
2014,09,15,06,44,10.70
2014,09,15,06,45,10.70
2014,09,15,06,46,10.70
2014,09,15,06,47,10.70
2014,09,15,06,48,10.70
2014,09,15,06,49,10.70
2014,09,15,06,50,10.70
2014,09,15,06,51,10.70
2014,09,15,06,52,10.70
2014,09,15,06,53,10.70
2014,09,15,06,54,10.70
2014,09,15,06,55,10.70
2014,09,15,06,56,10.70
2014,09,15,06,57,10.70
2014,09,15,06,58,10.70
2014,09,15,06,59,10.70
2014,09,15,07,00,10.70
2014,09,15,07,01,10.60
2014,09,15,07,02,10.60
2014,09,15,07,03,10.70
2014,09,15,07,04,10.60
2014,09,15,07,05,10.60
2014,09,15,07,06,10.60
2014,09,15,07,07,10.60
2014,09,15,07,08,10.60
2014,09,15,07,09,10.60
2014,09,15,07,10,10.60
2014,09,15,07,11,10.60
2014,09,15,07,12,10.60
2014,09,15,07,13,10.60
2014,09,15,07,14,10.60
2014,09,15,07,15,10.70
2014,09,15,07,16,10.60
2014,09,15,07,17,10.60
2014,09,15,07,18,10.60
2014,09,15,07,19,10.60
2014,09,15,07,20,10.60
2014,09,15,07,21,10.60
2014,09,15,07,22,10.60
2014,09,15,07,23,10.60
2014,09,15,07,24,10.60
2014,09,15,07,25,10.60
2014,09,15,07,26,10.60
2014,09,15,07,27,10.60
2014,09,15,07,28,10.60
2014,09,15,07,29,10.60
2014,09,15,07,30,10.60
2014,09,15,07,31,10.70
2014,09,15,07,32,10.70
2014,09,15,07,33,10.70
2014,09,15,07,34,10.70
2014,09,15,07,35,10.70
2014,09,15,07,36,10.70
2014,09,15,07,37,10.70
2014,09,15,07,38,10.70
2014,09,15,07,39,10.70
2014,09,15,07,40,10.70
2014,09,15,07,41,10.70
2014,09,15,07,42,10.80
2014,09,15,07,43,10.80
2014,09,15,07,44,10.80
2014,09,15,07,45,10.80
2014,09,15,07,46,10.80
2014,09,15,07,47,10.80
2014,09,15,07,48,10.80
2014,09,15,07,49,10.80
2014,09,15,07,50,10.80
2014,09,15,07,51,10.80
2014,09,15,07,52,10.80
2014,09,15,07,53,10.80
2014,09,15,07,54,10.90
2014,09,15,07,55,10.90
2014,09,15,07,56,10.90
2014,09,15,07,57,10.90
2014,09,15,07,58,10.90
2014,09,15,07,59,10.90
2014,09,15,08,00,10.90
2014,09,15,08,01,10.90
2014,09,15,08,02,10.90
2014,09,15,08,03,10.90
2014,09,15,08,04,10.90
2014,09,15,08,05,11.00
2014,09,15,08,06,11.00
2014,09,15,08,07,11.00
2014,09,15,08,08,11.10
2014,09,15,08,09,11.10
2014,09,15,08,10,11.10
2014,09,15,08,11,11.10
2014,09,15,08,12,11.20
2014,09,15,08,13,11.20
2014,09,15,08,14,11.20
2014,09,15,08,15,11.20
2014,09,15,08,16,11.30
2014,09,15,08,17,11.30
2014,09,15,08,18,11.30
2014,09,15,08,19,11.40
2014,09,15,08,20,11.40
2014,09,15,08,21,11.50
2014,09,15,08,22,11.60
2014,09,15,08,23,11.60
2014,09,15,08,24,11.70
2014,09,15,08,25,11.80
2014,09,15,08,26,11.90
2014,09,15,08,27,12.00
2014,09,15,08,28,12.10
2014,09,15,08,29,12.20
2014,09,15,08,30,12.30
2014,09,15,08,31,12.40
2014,09,15,08,32,12.50
2014,09,15,08,33,12.60
2014,09,15,08,34,12.70
2014,09,15,08,35,12.80
2014,09,15,08,36,12.90
2014,09,15,08,37,13.00
2014,09,15,08,38,13.10
2014,09,15,08,39,13.30
2014,09,15,08,40,13.40
2014,09,15,08,41,13.50
2014,09,15,08,42,13.60
2014,09,15,08,43,13.80
2014,09,15,08,44,13.90
2014,09,15,08,45,13.90
2014,09,15,08,46,14.00
2014,09,15,08,47,14.10
2014,09,15,08,48,14.20
2014,09,15,08,49,14.30
2014,09,15,08,50,14.30
2014,09,15,08,51,14.40
2014,09,15,08,52,14.40
2014,09,15,08,53,14.50
2014,09,15,08,54,14.60
2014,09,15,08,55,14.70
2014,09,15,08,56,14.70
2014,09,15,08,57,14.90
2014,09,15,08,58,15.00
2014,09,15,08,59,15.00
2014,09,15,09,00,15.20
2014,09,15,09,01,15.30
2014,09,15,09,02,15.40
2014,09,15,09,03,15.50
2014,09,15,09,04,15.60
2014,09,15,09,05,15.60
2014,09,15,09,06,15.60
2014,09,15,09,07,15.70
2014,09,15,09,08,15.70
2014,09,15,09,09,15.80
2014,09,15,09,10,15.90
2014,09,15,09,11,16.10
2014,09,15,09,12,16.20
2014,09,15,09,13,16.40
2014,09,15,09,14,16.50
2014,09,15,09,15,16.70
2014,09,15,09,16,16.80
2014,09,15,09,17,17.00
2014,09,15,09,18,17.10
2014,09,15,09,19,17.20
2014,09,15,09,20,17.30
2014,09,15,09,21,17.50
2014,09,15,09,22,17.60
2014,09,15,09,23,17.60
2014,09,15,09,24,17.70
2014,09,15,09,25,17.80
2014,09,15,09,26,17.80
2014,09,15,09,27,17.80
2014,09,15,09,28,17.80
2014,09,15,09,29,17.80
2014,09,15,09,30,17.80
2014,09,15,09,31,17.80
2014,09,15,09,32,17.70
2014,09,15,09,33,17.70
2014,09,15,09,34,17.70
2014,09,15,09,35,17.70
2014,09,15,09,36,17.70
2014,09,15,09,37,17.70
2014,09,15,09,38,17.70
2014,09,15,09,39,17.70
2014,09,15,09,40,17.80
2014,09,15,09,41,17.80
2014,09,15,09,42,17.80
2014,09,15,09,43,17.90
2014,09,15,09,44,17.90
2014,09,15,09,45,17.90
2014,09,15,09,46,17.90
2014,09,15,09,47,17.90
2014,09,15,09,48,17.90
2014,09,15,09,49,17.90
2014,09,15,09,50,17.90
2014,09,15,09,51,17.90
2014,09,15,09,52,17.80
2014,09,15,09,53,17.80
2014,09,15,09,54,17.80
2014,09,15,09,55,17.80
2014,09,15,09,56,17.80
2014,09,15,09,57,17.80
2014,09,15,09,58,17.80
2014,09,15,09,59,17.90
2014,09,15,10,00,17.90
2014,09,15,10,01,17.90
2014,09,15,10,02,17.90
2014,09,15,10,03,17.90
2014,09,15,10,04,18.00
2014,09,15,10,05,18.00
2014,09,15,10,06,18.10
2014,09,15,10,07,18.10
2014,09,15,10,08,18.20
2014,09,15,10,09,18.30
2014,09,15,10,10,18.30
2014,09,15,10,11,18.40
2014,09,15,10,12,18.40
2014,09,15,10,13,18.40
2014,09,15,10,14,18.50
2014,09,15,10,15,18.60
2014,09,15,10,16,18.60
2014,09,15,10,17,18.70
2014,09,15,10,18,18.80
2014,09,15,10,19,18.80
2014,09,15,10,20,18.90
2014,09,15,10,21,19.00
2014,09,15,10,22,19.10
2014,09,15,10,23,19.20
2014,09,15,10,24,19.30
2014,09,15,10,25,19.30
2014,09,15,10,26,19.40
2014,09,15,10,27,19.50
2014,09,15,10,28,19.60
2014,09,15,10,29,19.70
2014,09,15,10,30,19.80
2014,09,15,10,31,19.90
2014,09,15,10,32,19.90
2014,09,15,10,33,19.90
2014,09,15,10,34,19.90
2014,09,15,10,35,20.00
2014,09,15,10,36,19.90
2014,09,15,10,37,19.90
2014,09,15,10,38,19.90
2014,09,15,10,39,19.90
2014,09,15,10,40,19.80
2014,09,15,10,41,19.80
2014,09,15,10,42,19.80
2014,09,15,10,43,19.80
2014,09,15,10,44,19.80
2014,09,15,10,45,19.80
2014,09,15,10,46,19.80
2014,09,15,10,47,19.80
2014,09,15,10,48,19.80
2014,09,15,10,49,19.80
2014,09,15,10,50,19.80
2014,09,15,10,51,19.80
2014,09,15,10,52,19.90
2014,09,15,10,53,19.90
2014,09,15,10,54,19.90
2014,09,15,10,55,19.90
2014,09,15,10,56,19.90
2014,09,15,10,57,19.90
2014,09,15,10,58,19.90
2014,09,15,10,59,20.00
2014,09,15,11,00,20.00
2014,09,15,11,01,20.00
2014,09,15,11,02,20.10
2014,09,15,11,03,20.10
2014,09,15,11,04,20.20
2014,09,15,11,05,20.20
2014,09,15,11,06,20.30
2014,09,15,11,07,20.30
2014,09,15,11,08,20.40
2014,09,15,11,09,20.50
2014,09,15,11,10,20.50
2014,09,15,11,11,20.60
2014,09,15,11,12,20.60
2014,09,15,11,13,20.70
2014,09,15,11,14,20.70
2014,09,15,11,15,20.80
2014,09,15,11,16,20.80
2014,09,15,11,17,20.90
2014,09,15,11,18,20.90
2014,09,15,11,19,21.00
2014,09,15,11,20,21.10
2014,09,15,11,21,21.20
2014,09,15,11,22,21.20
2014,09,15,11,23,21.30
2014,09,15,11,24,21.30
2014,09,15,11,25,21.40
2014,09,15,11,26,21.50
2014,09,15,11,27,21.60
2014,09,15,11,28,21.60
2014,09,15,11,29,21.70
2014,09,15,11,30,21.70
2014,09,15,11,31,21.80
2014,09,15,11,32,21.80
2014,09,15,11,33,21.70
2014,09,15,11,34,21.70
2014,09,15,11,35,21.70
2014,09,15,11,36,21.70
2014,09,15,11,37,21.70
2014,09,15,11,38,21.80
2014,09,15,11,39,21.80
2014,09,15,11,40,21.80
2014,09,15,11,41,21.80
2014,09,15,11,42,21.80
2014,09,15,11,43,21.80
2014,09,15,11,44,21.80
2014,09,15,11,45,21.80
2014,09,15,11,46,21.80
2014,09,15,11,47,21.90
2014,09,15,11,48,21.90
2014,09,15,11,49,21.90
2014,09,15,11,50,21.90
2014,09,15,11,51,21.90
2014,09,15,11,52,21.90
2014,09,15,11,53,21.90
2014,09,15,11,54,21.90
2014,09,15,11,55,21.90
2014,09,15,11,56,22.00
2014,09,15,11,57,22.00
2014,09,15,11,58,22.00
2014,09,15,11,59,22.10
2014,09,15,12,00,22.10
2014,09,15,12,01,22.10
2014,09,15,12,02,22.20
2014,09,15,12,03,22.20
2014,09,15,12,04,22.20
2014,09,15,12,05,22.30
2014,09,15,12,06,22.30
2014,09,15,12,07,22.30
2014,09,15,12,08,22.30
2014,09,15,12,09,22.30
2014,09,15,12,10,22.30
2014,09,15,12,11,22.30
2014,09,15,12,12,22.30
2014,09,15,12,13,22.40
2014,09,15,12,14,22.40
2014,09,15,12,15,22.40
2014,09,15,12,16,22.40
2014,09,15,12,17,22.40
2014,09,15,12,18,22.40
2014,09,15,12,19,22.40
2014,09,15,12,20,22.40
2014,09,15,12,21,22.40
2014,09,15,12,22,22.50
2014,09,15,12,23,22.50
2014,09,15,12,24,22.50
2014,09,15,12,25,22.50
2014,09,15,12,26,22.40
2014,09,15,12,27,22.40
2014,09,15,12,28,22.40
2014,09,15,12,29,22.50
2014,09,15,12,30,22.60
2014,09,15,12,31,22.60
2014,09,15,12,32,22.60
2014,09,15,12,33,22.60
2014,09,15,12,34,22.60
2014,09,15,12,35,22.60
2014,09,15,12,36,22.70
2014,09,15,12,37,22.70
2014,09,15,12,38,22.80
2014,09,15,12,39,22.80
2014,09,15,12,40,22.80
2014,09,15,12,41,22.80
2014,09,15,12,42,22.90
2014,09,15,12,43,22.90
2014,09,15,12,44,22.90
2014,09,15,12,45,23.00
2014,09,15,12,46,23.00
2014,09,15,12,47,23.10
2014,09,15,12,48,23.10
2014,09,15,12,49,23.20
2014,09,15,12,50,23.20
2014,09,15,12,51,23.20
2014,09,15,12,52,23.30
2014,09,15,12,53,23.30
2014,09,15,12,54,23.30
2014,09,15,12,55,23.30
2014,09,15,12,56,23.30
2014,09,15,12,57,23.40
2014,09,15,12,58,23.40
2014,09,15,12,59,23.40
2014,09,15,13,00,23.40
2014,09,15,13,01,23.40
2014,09,15,13,02,23.50
2014,09,15,13,03,23.50
2014,09,15,13,04,23.50
2014,09,15,13,05,23.50
2014,09,15,13,06,23.60
2014,09,15,13,07,23.60
2014,09,15,13,08,23.60
2014,09,15,13,09,23.60
2014,09,15,13,10,23.60
2014,09,15,13,11,23.60
2014,09,15,13,12,23.70
2014,09,15,13,13,23.70
2014,09,15,13,14,23.70
2014,09,15,13,15,23.70
2014,09,15,13,16,23.70
2014,09,15,13,17,23.80
2014,09,15,13,18,23.80
2014,09,15,13,19,23.80
2014,09,15,13,20,23.80
2014,09,15,13,21,23.80
2014,09,15,13,22,23.80
2014,09,15,13,23,23.90
2014,09,15,13,24,23.90
2014,09,15,13,25,23.90
2014,09,15,13,26,23.90
2014,09,15,13,27,23.90
2014,09,15,13,28,23.90
2014,09,15,13,29,23.90
2014,09,15,13,30,24.00
2014,09,15,13,31,24.10
2014,09,15,13,32,24.10
2014,09,15,13,33,24.10
2014,09,15,13,34,24.20
2014,09,15,13,35,24.20
2014,09,15,13,36,24.20
2014,09,15,13,37,24.30
2014,09,15,13,38,24.30
2014,09,15,13,39,24.30
2014,09,15,13,40,24.30
2014,09,15,13,41,24.30
2014,09,15,13,42,24.30
2014,09,15,13,43,24.30
2014,09,15,13,44,24.30
2014,09,15,13,45,24.30
2014,09,15,13,46,24.40
2014,09,15,13,47,24.40
2014,09,15,13,48,24.40
2014,09,15,13,49,24.40
2014,09,15,13,50,24.40
2014,09,15,13,51,24.40
2014,09,15,13,52,24.40
2014,09,15,13,53,24.40
2014,09,15,13,54,24.40
2014,09,15,13,55,24.40
2014,09,15,13,56,24.40
2014,09,15,13,57,24.40
2014,09,15,13,58,24.40
2014,09,15,13,59,24.40
2014,09,15,14,00,24.40
2014,09,15,14,01,24.40
2014,09,15,14,02,24.40
2014,09,15,14,03,24.40
2014,09,15,14,04,24.40
2014,09,15,14,05,24.40
2014,09,15,14,06,24.40
2014,09,15,14,07,24.50
2014,09,15,14,08,24.50
2014,09,15,14,09,24.60
2014,09,15,14,10,24.60
2014,09,15,14,11,24.60
2014,09,15,14,12,24.60
2014,09,15,14,13,24.70
2014,09,15,14,14,24.70
2014,09,15,14,15,24.70
2014,09,15,14,16,24.70
2014,09,15,14,17,24.70
2014,09,15,14,18,24.70
2014,09,15,14,19,24.80
2014,09,15,14,20,24.80
2014,09,15,14,21,24.80
2014,09,15,14,22,24.80
2014,09,15,14,23,24.80
2014,09,15,14,24,24.80
2014,09,15,14,25,24.80
2014,09,15,14,26,24.80
2014,09,15,14,27,24.90
2014,09,15,14,28,24.90
2014,09,15,14,29,24.90
2014,09,15,14,30,24.90
2014,09,15,14,31,24.90
2014,09,15,14,32,25.00
2014,09,15,14,33,25.10
2014,09,15,14,34,25.10
2014,09,15,14,35,25.10
2014,09,15,14,36,25.20
2014,09,15,14,37,25.20
2014,09,15,14,38,25.20
2014,09,15,14,39,25.20
2014,09,15,14,40,25.20
2014,09,15,14,41,25.30
2014,09,15,14,42,25.30
2014,09,15,14,43,25.30
2014,09,15,14,44,25.40
2014,09,15,14,45,25.40
2014,09,15,14,46,25.40
2014,09,15,14,47,25.40
2014,09,15,14,48,25.40
2014,09,15,14,49,25.40
2014,09,15,14,50,25.40
2014,09,15,14,51,25.40
2014,09,15,14,52,25.50
2014,09,15,14,53,25.50
2014,09,15,14,54,25.50
2014,09,15,14,55,25.60
2014,09,15,14,56,25.60
2014,09,15,14,57,25.60
2014,09,15,14,58,25.70
2014,09,15,14,59,25.70
2014,09,15,15,00,25.80
2014,09,15,15,01,25.80
2014,09,15,15,02,25.80
2014,09,15,15,03,25.80
2014,09,15,15,04,25.90
2014,09,15,15,05,25.80
2014,09,15,15,06,25.90
2014,09,15,15,07,25.80
2014,09,15,15,08,25.80
2014,09,15,15,09,25.80
2014,09,15,15,10,25.80
2014,09,15,15,11,25.80
2014,09,15,15,12,25.80
2014,09,15,15,13,25.70
2014,09,15,15,14,25.70
2014,09,15,15,15,25.70
2014,09,15,15,16,25.60
2014,09,15,15,17,25.60
2014,09,15,15,18,25.60
2014,09,15,15,19,25.60
2014,09,15,15,20,25.70
2014,09,15,15,21,25.70
2014,09,15,15,22,25.70
2014,09,15,15,23,25.70
2014,09,15,15,24,25.80
2014,09,15,15,25,25.80
2014,09,15,15,26,25.90
2014,09,15,15,27,25.90
2014,09,15,15,28,25.90
2014,09,15,15,29,25.90
2014,09,15,15,30,25.90
2014,09,15,15,31,26.00
2014,09,15,15,32,26.10
2014,09,15,15,33,26.10
2014,09,15,15,34,26.10
2014,09,15,15,35,26.20
2014,09,15,15,36,26.20
2014,09,15,15,37,26.20
2014,09,15,15,38,26.20
2014,09,15,15,39,26.20
2014,09,15,15,40,26.20
2014,09,15,15,41,26.30
2014,09,15,15,42,26.30
2014,09,15,15,43,26.30
2014,09,15,15,44,26.30
2014,09,15,15,45,26.30
2014,09,15,15,46,26.30
2014,09,15,15,47,26.30
2014,09,15,15,48,26.30
2014,09,15,15,49,26.30
2014,09,15,15,50,26.20
2014,09,15,15,51,26.20
2014,09,15,15,52,26.20
2014,09,15,15,53,26.20
2014,09,15,15,54,26.20
2014,09,15,15,55,26.20
2014,09,15,15,56,26.10
2014,09,15,15,57,26.10
2014,09,15,15,58,26.10
2014,09,15,15,59,26.10
2014,09,15,16,00,26.20
2014,09,15,16,01,26.20
2014,09,15,16,02,26.20
2014,09,15,16,03,26.30
2014,09,15,16,04,26.30
2014,09,15,16,05,26.30
2014,09,15,16,06,26.30
2014,09,15,16,07,26.30
2014,09,15,16,08,26.40
2014,09,15,16,09,26.40
2014,09,15,16,10,26.40
2014,09,15,16,11,26.40
2014,09,15,16,12,26.50
2014,09,15,16,13,26.50
2014,09,15,16,14,26.60
2014,09,15,16,15,26.60
2014,09,15,16,16,26.70
2014,09,15,16,17,26.70
2014,09,15,16,18,26.80
2014,09,15,16,19,26.80
2014,09,15,16,20,26.90
2014,09,15,16,21,27.00
2014,09,15,16,22,27.00
2014,09,15,16,23,27.10
2014,09,15,16,24,27.20
2014,09,15,16,25,27.30
2014,09,15,16,26,27.40
2014,09,15,16,27,27.40
2014,09,15,16,28,27.50
2014,09,15,16,29,27.60
2014,09,15,16,30,27.60
2014,09,15,16,31,27.70
2014,09,15,16,32,27.70
2014,09,15,16,33,27.80
2014,09,15,16,34,27.80
2014,09,15,16,35,27.80
2014,09,15,16,36,27.90
2014,09,15,16,37,27.90
2014,09,15,16,38,27.90
2014,09,15,16,39,27.80
2014,09,15,16,40,27.80
2014,09,15,16,41,27.80
2014,09,15,16,42,27.80
2014,09,15,16,43,27.80
2014,09,15,16,44,27.80
2014,09,15,16,45,27.70
2014,09,15,16,46,27.60
2014,09,15,16,47,27.50
2014,09,15,16,48,27.40
2014,09,15,16,49,27.30
2014,09,15,16,50,27.30
2014,09,15,16,51,27.20
2014,09,15,16,52,27.20
2014,09,15,16,53,27.20
2014,09,15,16,54,27.20
2014,09,15,16,55,27.20
2014,09,15,16,56,27.20
2014,09,15,16,57,27.20
2014,09,15,16,58,27.20
2014,09,15,16,59,27.20
2014,09,15,17,00,27.30
2014,09,15,17,01,27.30
2014,09,15,17,02,27.30
2014,09,15,17,03,27.40
2014,09,15,17,04,27.40
2014,09,15,17,05,27.40
2014,09,15,17,06,27.40
2014,09,15,17,07,27.40
2014,09,15,17,08,27.40
2014,09,15,17,09,27.40
2014,09,15,17,10,27.30
2014,09,15,17,11,27.30
2014,09,15,17,12,27.30
2014,09,15,17,13,27.40
2014,09,15,17,14,27.30
2014,09,15,17,15,27.20
2014,09,15,17,16,27.10
2014,09,15,17,17,27.10
2014,09,15,17,18,27.00
2014,09,15,17,19,27.00